ORBCOMM-X 1 21576U 91050C 25355.13636049 .00000236 00000+0 82656-4 0 9999 2 21576 98.3217 57.7212 0003327 1.1037 359.0160 14.43441710809082 ORBCOMM FM01 1 23545U 95017A 25355.32813601 .00006057 00000+0 58671-3 0 9992 2 23545 69.9628 326.5160 0004242 331.8883 28.2044 14.93196768640419 ORBCOMM FM02 1 23546U 95017B 25355.32691338 .00007893 00000+0 73157-3 0 9999 2 23546 69.9640 345.0955 0005525 345.6507 14.4492 14.94795686640085 ORBCOMM FM08 1 25112U 97084A 25355.52945102 .00000990 00000+0 31166-3 0 9994 2 25112 45.0119 188.0381 0006827 119.1643 240.9893 14.46618192468498 ORBCOMM FM10 1 25113U 97084B 25355.53994096 .00000837 00000+0 27099-3 0 9992 2 25113 45.0135 190.7165 0005181 86.5295 273.6150 14.46362476643630 ORBCOMM FM11 1 25114U 97084C 25355.57756029 .00000954 00000+0 30501-3 0 9991 2 25114 45.0119 191.5159 0006008 87.7867 272.3673 14.46107139468591 ORBCOMM FM12 1 25115U 97084D 25354.84654167 .00000787 00000+0 25858-3 0 9994 2 25115 45.0125 194.7578 0005103 81.1256 279.0173 14.46127564468283 ORBCOMM FM09 1 25116U 97084E 25355.58749261 .00000846 00000+0 27572-3 0 9998 2 25116 45.0128 192.3373 0006208 73.8733 286.2802 14.45967740468599 ORBCOMM FM05 1 25117U 97084F 25355.27355877 .00001043 00000+0 32531-3 0 9992 2 25117 45.0130 189.2957 0002757 89.0691 271.0477 14.46729941467693 ORBCOMM FM06 1 25118U 97084G 25355.59985066 .00000987 00000+0 30918-3 0 9990 2 25118 45.0120 187.2393 0001683 97.4555 305.2031 14.46893515468667 ORBCOMM FM07 1 25119U 97084H 25355.53493217 .00000988 00000+0 30916-3 0 9996 2 25119 45.0119 188.3005 0003530 85.7571 274.3684 14.46905030468643 ORBCOMM FM03 1 25158U 98007B 25355.40045430 .00000979 00000+0 38471-3 0 9995 2 25158 107.9647 160.3035 0046795 280.2295 79.3570 14.35046450450893 ORBCOMM FM04 1 25159U 98007C 25355.42238536 .00000954 00000+0 37506-3 0 9990 2 25159 107.9639 163.6973 0042612 277.5703 82.0598 14.35293012451080 ORBCOMM FM17 1 25413U 98046A 25355.35717960 .00000728 00000+0 29929-3 0 9990 2 25413 44.9938 93.9745 0001673 112.1028 247.9997 14.35553901430069 ORBCOMM FM18 1 25414U 98046B 25355.47424621 .00000908 00000+0 33601-3 0 9995 2 25414 44.9941 5.7165 0003556 177.6944 182.3921 14.39175480431220 ORBCOMM FM19 1 25415U 98046C 25355.47504898 .00000968 00000+0 35655-3 0 9998 2 25415 44.9954 7.9986 0002391 185.9762 328.0890 14.38995638431178 ORBCOMM FM20 1 25416U 98046D 25355.07895567 .00000592 00000+0 24204-3 0 9992 2 25416 44.9952 15.9089 0002173 246.4798 113.5822 14.37680139431156 ORBCOMM FM16 1 25417U 98046E 25355.53803993 .00001003 00000+0 36369-3 0 9999 2 25417 44.9950 2.7368 0004065 196.1646 163.9074 14.39553362431241 ORBCOMM FM15 1 25418U 98046F 25355.00625721 .00000764 00000+0 29005-3 0 9995 2 25418 44.9979 10.9800 0003906 195.6533 164.4196 14.39180177431158 ORBCOMM FM14 1 25419U 98046G 25354.41885883 .00000856 00000+0 31685-3 0 9996 2 25419 44.9969 11.4385 0002714 203.0969 156.9759 14.39598922431045 ORBCOMM FM13 1 25420U 98046H 25355.32700041 .00000756 00000+0 29287-3 0 9995 2 25420 44.9985 17.0000 0003992 166.2056 193.8902 14.38215587430172 ORBCOMM FM21 1 25475U 98053A 25355.38008145 .00000735 00000+0 28837-3 0 9992 2 25475 45.0077 102.7265 0001482 155.3126 204.7793 14.37811538424181 ORBCOMM FM22 1 25476U 98053B 25355.55156542 .00000858 00000+0 32123-3 0 9996 2 25476 45.0073 95.1695 0002451 122.2736 237.8350 14.38985804424250 ORBCOMM FM23 1 25477U 98053C 25355.35379118 .00000811 00000+0 31193-3 0 9996 2 25477 45.0075 104.6754 0001897 123.7152 236.3877 14.38050270424333 ORBCOMM FM24 1 25478U 98053D 25355.49278270 .00000842 00000+0 31827-3 0 9997 2 25478 45.0073 100.6401 0001936 139.3032 220.7962 14.38674493424411 ORBCOMM FM25 1 25479U 98053E 25355.60690563 .00000874 00000+0 32869-3 0 9996 2 25479 45.0066 98.3984 0004250 128.0627 232.0606 14.38642441424723 ORBCOMM FM26 1 25480U 98053F 25354.70366452 .00000608 00000+0 24783-3 0 9996 2 25480 45.0062 100.5400 0006339 132.8786 227.2595 14.37611136424481 ORBCOMM FM27 1 25481U 98053G 25355.52088003 .00000997 00000+0 36806-3 0 9991 2 25481 45.0051 98.9373 0001673 188.9385 171.1434 14.38677768424643 ORBCOMM FM28 1 25482U 98053H 25355.39870634 .00000728 00000+0 28043-3 0 9992 2 25482 45.0062 36.7869 0004840 187.0427 173.0354 14.38804902425311 ORBCOMM FM30 1 25980U 99065A 25355.50607819 .00000620 00000+0 25067-3 0 9999 2 25980 45.0319 282.7761 0006350 243.1554 116.8645 14.37780735361409 ORBCOMM FM31 1 25981U 99065B 25355.48814109 .00000690 00000+0 27413-3 0 9993 2 25981 45.0229 276.3131 0004521 274.2372 85.7960 14.37708879360953 ORBCOMM FM32 1 25982U 99065C 25355.51921496 .00000653 00000+0 26698-3 0 9999 2 25982 45.0163 293.9963 0006930 263.3970 96.6089 14.36765812361535 ORBCOMM FM33 1 25983U 99065D 25355.52002209 .00000704 00000+0 26338-3 0 9991 2 25983 45.0265 187.9826 0007720 285.9048 74.0951 14.40547098363071 ORBCOMM FM36 1 25984U 99065E 25355.51765652 .00000919 00000+0 34286-3 0 9998 2 25984 45.0394 282.7616 0001356 182.9828 177.1013 14.38733261361390 ORBCOMM FM35 1 25985U 99065F 25354.52339921 .00000641 00000+0 25868-3 0 9993 2 25985 45.0402 294.0299 0004675 271.1163 88.9150 14.37635014361593 ORBCOMM FM34 1 25986U 99065G 25355.25470521 .00000705 00000+0 27979-3 0 9993 2 25986 45.0395 291.0376 0003369 230.5065 129.5486 14.37586658361815 ORBCOMM FM38 1 33060U 08031A 25351.76850136 .00001404 00000+0 20080-3 0 9997 2 33060 48.4372 159.8035 0004435 120.0486 240.0870 14.82282580941971 ORBCOMM FM41 1 33061U 08031B 25355.47309053 .00001370 00000+0 19848-3 0 9999 2 33061 48.4427 150.5656 0003600 121.2149 276.2326 14.81849203942004 ORBCOMM FM29 1 33062U 08031C 25355.51030939 .00001365 00000+0 19721-3 0 9993 2 33062 48.4378 157.9446 0005307 118.0526 283.3773 14.81996237941922 ORBCOMM FM39 1 33063U 08031D 25355.52047315 .00001062 00000+0 16519-3 0 9997 2 33063 48.4389 184.2944 0006121 84.2369 275.9244 14.80433669941547 ORBCOMM FM37 1 33064U 08031E 25355.53931795 .00001054 00000+0 16336-3 0 9991 2 33064 48.4383 172.4341 0004764 106.7004 292.1304 14.80630471941806 ORBCOMM FM40 1 33065U 08031F 25354.83492780 .00001350 00000+0 19034-3 0 9997 2 33065 48.4405 156.5483 0005852 121.3183 20.2206 14.83138740941853 VESSELSAT 1 1 37840U 11058C 25355.52506836 .00000334 00000+0 37582-4 0 9990 2 37840 19.9630 40.2623 0013835 87.3247 272.8741 14.11400253732802 ORBCOMM FM109 1 40086U 14040A 25355.01607601 .00000270 00000+0 93760-4 0 9995 2 40086 47.0019 213.7060 0001287 127.8874 232.2129 14.58555290608330 ORBCOMM FM107 1 40087U 14040B 25355.58290844 .00000397 00000+0 12079-3 0 9998 2 40087 47.0033 211.9122 0000726 42.0542 318.0399 14.58633350608496 ORBCOMM FM106 1 40088U 14040C 25355.45228686 .00000823 00000+0 16687-3 0 9993 2 40088 47.0615 19.5081 0017072 220.2824 139.6803 14.70050201611026 ORBCOMM FM111 1 40089U 14040D 25355.61911789 .00001579 00000+0 19409-3 0 9999 2 40089 47.0002 203.0441 0028366 9.9915 350.1541 14.87763458618128 ORBCOMM FM104 1 40090U 14040E 25355.43543021 .00000380 00000+0 12127-3 0 9990 2 40090 47.0046 248.4859 0016568 339.3689 20.6526 14.57020165607929 ORBCOMM FM103 1 40091U 14040F 25354.67522570 .00000310 00000+0 10231-3 0 9999 2 40091 47.0040 216.8665 0001364 43.9093 316.1901 14.58545574591326 ORBCOMM FM114 1 41179U 15081A 25355.37690276 .00000313 00000+0 10309-3 0 9999 2 41179 47.0039 122.5041 0001816 120.7718 239.3347 14.58565844531790 ORBCOMM FM119 1 41180U 15081B 25355.51026550 .00000466 00000+0 13569-3 0 9995 2 41180 47.0015 31.2330 0001534 228.6652 131.4102 14.58515363533069 ORBCOMM FM105 1 41181U 15081C 25355.21834955 .00000183 00000+0 95880-4 0 9992 2 41181 47.0020 55.8381 0000803 80.1759 279.9212 14.45411487527804 ORBCOMM FM110 1 41182U 15081D 25355.36671272 .00000558 00000+0 15507-3 0 9993 2 41182 47.0011 122.0506 0002538 316.4829 43.5856 14.58595493531663 ORBCOMM FM118 1 41183U 15081E 25355.53822284 .00000451 00000+0 13248-3 0 9996 2 41183 47.0033 121.5396 0003246 282.2736 77.7786 14.58587533531794 ORBCOMM FM112 1 41184U 15081F 25355.47239756 .00000536 00000+0 15032-3 0 9993 2 41184 47.0000 30.3838 0000772 147.7616 212.3317 14.58592476533005 ORBCOMM FM113 1 41185U 15081G 25355.51817488 .00000625 00000+0 16937-3 0 9997 2 41185 47.0016 30.5244 0000798 177.5207 182.5683 14.58589660532993 ORBCOMM FM115 1 41186U 15081H 25355.34901949 .00000460 00000+0 12315-3 0 9998 2 41186 46.9973 229.1489 0001074 226.9654 133.1144 14.62935726535174 ORBCOMM FM108 1 41187U 15081J 25355.27533471 .00000728 00000+0 19135-3 0 9996 2 41187 47.0059 303.1838 0001776 84.4634 275.6455 14.58572711534102 ORBCOMM FM117 1 41188U 15081K 25355.58352088 .00000719 00000+0 18931-3 0 9997 2 41188 47.0022 300.4217 0002081 98.1924 261.9198 14.58598872534195 ORBCOMM FM116 1 41189U 15081L 25355.15287679 .00000619 00000+0 16807-3 0 9993 2 41189 47.0033 32.2281 0002562 293.7669 66.2948 14.58591028532948